Home > Weather > Safed > Past weeks

Flag for Israel Past Weather in Safed, Israel — Yesterday and Last 2 Weeks

Now
77 °F

Passing clouds.


Feels Like: 79 °F
Forecast: 67 / 82 °F
Wind: 5 mph from Southeast

Location: Beirut Airport

Current Time: Jul 2, 2016 at 6:58:29 AM

Latest Report: Jul 2, 2016 at 6:00 AM


Visibility: 5 mi

Pressure: 29.80 "Hg (27.28 "Hg at 772m altitude)

Humidity: 74%

Dew Point: 68 °F

Location of SafedLocation

Past Weather in Safed — Graph

°F

Safed Temperature Yesterday

Maximum temperature yesterday: 84 °F (at 1:00 PM)
Minimum temperature yesterday: 77 °F (at 12:00 AM)
Average temperature yesterday: 80 °F

High & Low Weather Summary for the Past Weeks

 TemperatureHumidityPressure
High86 °F (Jun 18, 12:00 PM)94% (Jun 20, 3:00 AM)29.92 "Hg (Jun 20, 3:00 AM)
Low72 °F (Jun 17, 5:00 AM)40% (Jun 18, 8:00 PM)29.71 "Hg (Jun 24, 6:00 AM)
Average80 °F75%29.80 "Hg
* Reported Jun 17 5:00 AM — Jul 2 5:00 AM, Safed, Weather by CustomWeather, © 2016

Note: Actual official high and low records may vary slightly from our data, if they occured in-between our weather recording intervals... More about our weather records

Advertising

Safed Weather History for the Previous 24 Hours

Scroll right to see more
 ConditionsComfort  
Time TempWeatherWind HumidityBarometerVisibility
5:00 AM
Sat, Jul 2
77 °FPassing clouds.5 mph74%29.80 "Hg5 mi
4:00 AM77 °FPassing clouds.3 mph74%29.80 "Hg5 mi
3:00 AM79 °FPassing clouds.3 mph74%29.80 "Hg5 mi
2:00 AM79 °FPassing clouds.3 mph74%29.83 "HgN/A
1:00 AM79 °FPassing clouds.3 mph74%29.86 "HgN/A
12:00 AM79 °FPassing clouds.5 mph74%29.86 "HgN/A
11:00 PM
Fri, Jul 1
79 °FPassing clouds.3 mph79%29.86 "HgN/A
10:00 PM79 °FPassing clouds.3 mph74%29.86 "HgN/A
9:00 PM79 °FPassing clouds.3 mph74%29.86 "HgN/A
8:00 PM81 °FPassing clouds.5 mph70%29.86 "HgN/A
7:00 PM81 °FPassing clouds.6 mph70%29.86 "HgN/A
6:00 PM82 °FPassing clouds.6 mph66%29.86 "HgN/A
5:00 PM84 °FPassing clouds.8 mph62%29.86 "HgN/A
4:00 PM84 °FPassing clouds.8 mph66%29.86 "HgN/A
3:00 PM84 °FPassing clouds.9 mph66%29.89 "HgN/A
2:00 PM84 °FPassing clouds.8 mph62%29.89 "HgN/A
1:00 PM84 °FPassing clouds.9 mph62%29.89 "HgN/A
12:00 PM82 °FPassing clouds.9 mph66%29.89 "HgN/A
11:00 AM82 °FPassing clouds.9 mph66%29.89 "HgN/A
10:00 AM82 °FPassing clouds.9 mph70%29.89 "HgN/A
9:00 AM81 °FPassing clouds.8 mph70%29.89 "HgN/A
8:00 AM79 °FPassing clouds.3 mph70%29.89 "HgN/A
7:00 AM79 °FPassing clouds.5 mph61%29.89 "HgN/A
6:00 AM77 °FPassing clouds.2 mph69%29.86 "HgN/A
Weather by CustomWeather, © 2016

See weather overviewHow to use our weather pages